Andalusia, AL

3:03 AM CDT on September 30, 2016 (GMT -0500)
Andalusia

Weather History for K79J - January, 2013

Change the Weather History Date:

Tuesday, January 22, 2013

  Actual Average (KCEW) Record (KCEW)
Temperature  
Mean Temperature 48 °F -  
Max Temperature 59 °F 61 °F 80 °F (1949)
Min Temperature 37 °F 35 °F 21 °F (2009)
Degree Days  
Heating Degree Days 17    
Moisture  
Dew Point 27 °F    
Average Humidity 50    
Maximum Humidity 73    
Minimum Humidity 24    
Precipitation  
Precipitation 0.00 in - - ()
Sea Level Pressure  
Sea Level Pressure 30.30 in    
Wind  
Wind Speed 4 mph (NNE)    
Max Wind Speed 10 mph    
Max Gust Speed 16 mph    
Visibility 10 miles    
Events      
Averages and records for this station are not official NWS values.
T = Trace of Precipitation, MM = Missing Value Source: NWS Daily Summary

Daily Weather History Graph

Daily Weather History Graph

Search for Another Location

Airport or City:

Trip Planner

Search our weather history database for the weather conditions in past years. The results will help you decide how hot, cold, wet, or windy it might be!

Date:

Astronomy

Jan. 22, 2013 Rise Set
Actual Time 6:42 AM CST 5:11 PM CST
Civil Twilight 6:17 AM CST 5:37 PM CST
Nautical Twilight 5:47 AM CST 6:07 PM CST
Astronomical Twilight 5:18 AM CST 6:36 PM CST
Moon 1:37 PM CST (1/22) 3:01 AM CST (1/22)
Length of Visible Light 11h 20m
Length of Day
10h 29m
Waxing Gibbous, 83% of the Moon is Illuminated
Jan 22
Waxing Gibbous
Jan 26
Full
Feb 3
Last Quarter
Feb 10
New
Feb 17
First Quarter

Hourly Weather History & Observations

Time (CST) Temp. Windchill Dew Point Humidity Pressure Visibility Wind Dir Wind Speed Gust Speed Precip Events Conditions
12:56 AM 46.0 °F 43.9 °F 32.0 °F 58% 30.20 in 10.0 mi NNE 4.6 mph - N/A   Clear
1:56 AM 45.0 °F - 32.0 °F 60% 30.21 in 10.0 mi Calm Calm - N/A   Clear
2:56 AM 43.0 °F 41.3 °F 30.9 °F 62% 30.22 in 10.0 mi North 3.5 mph - N/A   Clear
3:56 AM 39.0 °F 35.7 °F 30.0 °F 70% 30.23 in 10.0 mi North 4.6 mph - N/A   Clear
4:56 AM 39.0 °F 36.8 °F 28.9 °F 67% 30.25 in 10.0 mi North 3.5 mph - N/A   Clear
5:56 AM 39.0 °F 36.8 °F 26.1 °F 60% 30.28 in 10.0 mi NNE 3.5 mph - N/A   Clear
6:56 AM 37.9 °F - 26.1 °F 62% 30.30 in 10.0 mi Calm Calm - N/A   Clear
7:56 AM 39.9 °F 36.7 °F 26.1 °F 58% 30.33 in 10.0 mi NNE 4.6 mph - N/A   Clear
8:56 AM 45.0 °F 41.2 °F 25.0 °F 46% 30.35 in 10.0 mi NNE 6.9 mph - N/A   Clear
9:56 AM 50.0 °F - 21.0 °F 32% 30.36 in 10.0 mi NNE 8.1 mph - N/A   Clear
10:56 AM 52.0 °F - 19.9 °F 28% 30.35 in 10.0 mi North 10.4 mph 16.1 mph N/A   Clear
11:56 AM 54.0 °F - 21.0 °F 28% 30.32 in 10.0 mi North 5.8 mph - N/A   Clear
12:56 PM 57.0 °F - 21.0 °F 25% 30.30 in 10.0 mi NNE 5.8 mph - N/A   Clear
1:56 PM 59.0 °F - 21.9 °F 24% 30.28 in 10.0 mi North 5.8 mph - N/A   Clear
2:56 PM 59.0 °F - 23.0 °F 25% 30.28 in 10.0 mi NE 8.1 mph - N/A   Clear
3:56 PM 59.0 °F - 24.1 °F 26% 30.29 in 10.0 mi NNE 5.8 mph - N/A   Clear
4:56 PM 55.0 °F - 26.1 °F 33% 30.30 in 10.0 mi Calm Calm - N/A   Clear
5:56 PM 50.0 °F - 30.0 °F 46% 30.31 in 10.0 mi Calm Calm - N/A   Clear
6:56 PM 46.0 °F - 32.0 °F 58% 30.31 in 10.0 mi Calm Calm - N/A   Clear
7:56 PM 44.1 °F - 32.0 °F 63% 30.32 in 10.0 mi Calm Calm - N/A   Clear
8:56 PM 39.9 °F - 30.9 °F 70% 30.34 in 10.0 mi Calm Calm - N/A   Clear
9:56 PM 42.1 °F - 30.0 °F 62% 30.35 in 10.0 mi Calm Calm - N/A   Clear
10:56 PM 39.0 °F - 30.0 °F 70% 30.35 in 10.0 mi Calm Calm - N/A   Clear
11:56 PM 37.9 °F - 30.0 °F 73% 30.34 in 10.0 mi Calm Calm - N/A   Clear